Location: The Saddle
(36.8333°N, 80.3417°W)
Time: 12:40:37
(UTC-04:00)

Courier 1B - Pass Details

Date: 26 September 2024
Orbit: 962 x 1208 km, 28.3° (Epoch: 06 October)

Event Time Altitude Azimuth Distance (km) Brightness Sun altitude
Rises 14:02:04 0° 262° (W) 3,669 10.8 49.8°
Reaches altitude 10° 14:04:52 10° 254° (WSW) 2,743 10.3 49.6°
Maximum altitude 14:10:52 36° 189° (S) 1,548 10.5 49.2°
Drops below altitude 10° 14:17:10 10° 125° (SE) 2,886 10.2 48.7°
Sets 14:20:12 0° 117° (ESE) 3,883 10.7 48.4°
